Preview of NWS' New Version of Forecast
This preview is not operational and should not be used for support decisions.

Regional Weather Roundup (RWR)

Issued by National Weather Service (NWS)

                            
000
ASUS43 KDMX 261406
RWRIA 

WEATHER ROUNDUP FOR IOWA
NATIONAL WEATHER SERVICE DES MOINES IA
900 AM CDT FRI APR 26 2019

NOTE: "FAIR" INDICATES FEW OR NO CLOUDS BELOW 12,000 FEET WITH NO
SIGNIFICANT WEATHER AND/OR OBSTRUCTIONS TO VISIBILITY.

* - THESE STATIONS ARE NOT NWS STATIONS...THUS NOT UNDER NWS
QUALITY CONTROL.  THEY ALSO DO NOT REPORT WEATHER SUCH 
AS PRECIPITATION OR FOG.  

IAZ001>003-012>014-020>022-031>034-043>046-261500-
   NORTHWEST IOWA
  
CITY           SKY/WX    TMP DP  RH WIND       PRES   REMARKS
CARROLL *      SUNNY     50  30  46 N16G24    30.12S                  
CHEROKEE *     SUNNY     46  33  61 N8        30.15R                  
DENISON *      SUNNY     48  32  53 N10       30.16F                  
LE MARS *        N/A    N/A N/A N/A MISG        N/A                   
SHELDON *      SUNNY     46  37  71 N10       30.12S                  
SIOUX CITY     SUNNY     48  34  58 NW6       30.16F                  
SPENCER        SUNNY     50  31  48 N18       30.12S                  
STORM LAKE *   SUNNY     46  32  57 NW13      30.11R                  
$$
 
IAZ055>058-069>071-079>083-090>094-261500-
   SOUTHWEST IOWA
  
CITY           SKY/WX    TMP DP  RH WIND       PRES   REMARKS
ATLANTIC *     SUNNY     50  30  46 N15       30.14S                  
AUDUBON *      SUNNY     48  30  49 CALM      30.14F                  
CLARINDA *     SUNNY     52  27  37 N15G21    30.17S                  
COUNCIL BLFS * SUNNY     50  28  43 N12       30.15F                  
CRESTON *      SUNNY     50  30  46 N15       30.12S                  
HARLAN  *      SUNNY     50  28  43 N13G20    30.15S                  
LAMONI         SUNNY     51  29  42 NW16G23   30.11R                  
RED OAK *      SUNNY     52  28  40 N15       30.16S                  
SHENANDOAH *   SUNNY     54  28  37 N13       30.15F                  
$$
 
IAZ047>049-059>061-072>074-084-261500-
   CENTRAL IOWA
  
CITY           SKY/WX    TMP DP  RH WIND       PRES   REMARKS
AMES           SUNNY     50  29  44 NW22G32   30.08R                  
ANKENY *       SUNNY     50  30  46 NW16G26   30.10R                  
BOONE *        SUNNY     50  28  43 N18G30    30.08R                  
CHARITON *     SUNNY     50  32  50 NW18G25   30.08R                  
DES MOINES     SUNNY     50  30  46 NW15G24   30.09R                  
GRINNELL*      SUNNY     47  36  63 NW22      30.05S                  
KNOXVILLE *    SUNNY     50  30  46 NW18      30.06S                  
MARSHALLTOWN   SUNNY     49  35  58 NW20G28   30.03S                  
NEWTON *       SUNNY     48  34  57 NW20G29   30.05S                  
PELLA *        SUNNY     50  34  54 NW16      30.07S                  
$$
 
IAZ004>006-015-016-023>025-035-036-261500-
   NORTH CENTRAL IOWA
  
CITY           SKY/WX    TMP DP  RH WIND       PRES   REMARKS
ALGONA *       SUNNY     46  32  57 N22G28    30.08R                  
CLARION *      SUNNY     46  30  53 NW24G30   30.07S                  
ESTHERVILLE    SUNNY     45  31  58 NW18G24   30.11R                  
FORT DODGE *   SUNNY     48  30  49 NW10G23   30.11R                  
MASON CITY     SUNNY     46  33  60 N26G32    30.05S                  
FOREST CITY *  FAIR      46  32  57 NW21      30.06S                  
IOWA FALLS *   FAIR      47  35  62 NW24      30.06R                  
$$

IAZ007>011-017>019-026>030-037>042-050>054-066-261500-
   NORTHEAST IOWA
  
CITY           SKY/WX    TMP DP  RH WIND       PRES   REMARKS
CEDAR RAPIDS   FAIR      48  37  65 NW17G25   29.98R                  
CHARLES CITY * FAIR      46  34  61 NW25      30.02R                  
CLINTON *      FAIR      51  37  58 NW17      29.93R                  
DECORAH *      FAIR      46  30  53 NW20G30   29.95R                  
DUBUQUE        FAIR      50  31  48 NW17G25   29.92R                  
MONTICELLO *   FAIR      50  34  53 NW16G25   29.94F                  
OELWEIN *      FAIR      46  37  71 NW22      29.99R                  
WATERLOO       FAIR      49  35  58 NW25G31   30.00R                  
$$
 
IAZ064-065-067-068-078-261500-
   EAST CENTRAL IOWA
  
CITY           SKY/WX    TMP DP  RH WIND       PRES   REMARKS
DAVENPORT      FAIR      50  36  58 NW17G25   29.95S                  
IOWA CITY      FAIR      50  33  52 NW21G30   30.00R                  
MT. PLEASANT * SUNNY     52  34  50 NW14G25   30.00S                  
MUSCATINE *    FAIR      52  34  50 NW14G21   29.98R                  
QUAD CITIES    FAIR      53  35  50 NW15      29.93R                  
$$
 
IAZ062-063-075>077-085>089-095>099-261500-
   SOUTHEAST IOWA
  
CITY           SKY/WX    TMP DP  RH WIND       PRES   REMARKS
BURLINGTON     SUNNY     52  34  50 NW13G26   29.98R                  
FAIRFIELD *    SUNNY     52  32  46 NW22      30.01S                  
FORT MADISON * SUNNY     52  36  54 NW17G24   30.00S                  
KEOKUK *       SUNNY     54  32  43 NW15G24   30.00S                  
OSKALOOSA *    FAIR      50  32  49 NW18G28   30.04S                  
CENTERVILLE *  FAIR      52  32  46 NW15G24   30.08R                  
OTTUMWA        SUNNY     52  33  48 NW21G31   30.03S                  
WASHINGTON *   SUNNY     50  34  53 NW21G28   30.01S                  
$$

ABBREVIATIONS USED IN REMARKS
   TC - TEMPERATURES IN CELSIUS
  WCI - WIND CHILL INDEX
   HX - HEAT INDEX
  VSB - VISIBILITY  
$$